Location: Unspecified
(42.3650°N, 71.1030°W)
Time: 19:45:19
(UTC+00:00)

Vanguard 2 - Pass Details

Date: 03 July 2024
Orbit: 552 x 2913 km, 32.9° (Epoch: 22 July)

Event Time Altitude Azimuth Distance (km) Brightness Sun altitude
Exits shadow 06:07:52 25° 163° (SSE) 2,759 9.9 -22.2°
Maximum altitude 06:10:09 27° 143° (SE) 2,848 10.1 -22.1°
Drops below altitude 10° 06:20:07 10° 93° (E) 4,848 11.8 -21.4°
Sets 06:25:27 0° 84° (E) 6,217 12.6 -21.0°
